Startpagina
METAR-TAF:

METAR-TAF

Vliegvelden :

Aérodrome de Pontoise-Cormeilles-en-Vexin

Pontoise, Frankrijk

breedte: 49-05-48N, lengte: 002-02-27E, hoogte: 99 m

Actueel weer

Dit bericht is 27 minuten geleden gemaakt, om 02:00 UTC
Wind 9 kt uit het oostnoordoosten
Temperatuur 1°C
Vochtigheid 86%
Druk 1023 hPa
Zicht 10 km of meer
geen wolken onder 1500 m en geen cumulonimbus

METAR: LFPT 180200Z AUTO 06009KT CAVOK 01/M01 Q1023

Tijdstip: 03:27 (02:27 UTC)


TAF: ontbreekt

Waarnemingen en weersverwachtingen van meer dan 4000 vliegvelden (METAR en TAF).

De beschikbare stations zijn de gele en rode punten op de kaart.

Ga met uw muis naar het station om de naam te zien.

Klik dan om waarnemingen en weersverwachtingen te zien.

kaart wijzigen: klik op de groene knoppen met een zwart kruis om in te zoomen, op de groene knop met een streepje om uit te zoomen of op de groene pijlen voor aangrenzende kaarten.


METAR-TAF: